TimeEDT,TemperatureF,Dew PointF,Humidity,Sea Level PressureIn,VisibilityMPH,Wind Direction,Wind SpeedMPH,Gust SpeedMPH,PrecipitationIn,Events,Conditions,WindDirDegrees,DateUTC
12:15 AM,78.8,77.0,94,30.27,10.0,Calm,Calm,-,N/A,,Clear,0,2013-07-16 04:15:00
12:35 AM,77.0,75.2,94,30.27,7.0,Calm,Calm,-,N/A,,Clear,0,2013-07-16 04:35:00
12:55 AM,77.0,75.2,94,30.28,7.0,Calm,Calm,-,N/A,,Clear,0,2013-07-16 04:55:00
1:15 AM,75.2,75.2,100,30.28,7.0,Calm,Calm,-,N/A,,Clear,0,2013-07-16 05:15:00
1:35 AM,75.2,75.2,100,30.28,5.0,Calm,Calm,-,N/A,,Clear,0,2013-07-16 05:35:00
1:55 AM,75.2,75.2,100,30.27,7.0,Calm,Calm,-,N/A,,Clear,0,2013-07-16 05:55:00
2:15 AM,73.4,73.4,100,30.27,5.0,Calm,Calm,-,N/A,,Clear,0,2013-07-16 06:15:00
2:35 AM,73.4,73.4,100,30.27,5.0,Calm,Calm,-,N/A,,Clear,0,2013-07-16 06:35:00
2:55 AM,73.4,73.4,100,30.27,5.0,Calm,Calm,-,N/A,,Clear,0,2013-07-16 06:55:00
3:15 AM,73.4,73.4,100,30.27,5.0,Calm,Calm,-,N/A,,Clear,0,2013-07-16 07:15:00
3:35 AM,73.4,73.4,100,30.27,5.0,Calm,Calm,-,N/A,,Clear,0,2013-07-16 07:35:00
3:55 AM,73.4,73.4,100,30.26,7.0,Calm,Calm,-,N/A,,Clear,0,2013-07-16 07:55:00
4:15 AM,73.4,73.4,100,30.26,5.0,Calm,Calm,-,N/A,,Clear,0,2013-07-16 08:15:00
4:35 AM,73.4,73.4,100,30.26,4.0,Calm,Calm,-,N/A,,Clear,0,2013-07-16 08:35:00
4:55 AM,73.4,73.4,100,30.26,0.2,Calm,Calm,-,N/A,Fog,Fog,0,2013-07-16 08:55:00
5:15 AM,71.6,71.6,100,30.26,1.0,Calm,Calm,-,N/A,,Mostly Cloudy,0,2013-07-16 09:15:00
5:35 AM,73.4,73.4,100,30.26,1.0,Calm,Calm,-,N/A,,Mostly Cloudy,0,2013-07-16 09:35:00
5:55 AM,71.6,71.6,100,30.27,1.5,Calm,Calm,-,N/A,,Overcast,0,2013-07-16 09:55:00
6:15 AM,71.6,71.6,100,30.27,0.2,Calm,Calm,-,N/A,Fog,Fog,0,2013-07-16 10:15:00
6:35 AM,73.4,73.4,100,30.28,0.2,Calm,Calm,-,N/A,Fog,Fog,0,2013-07-16 10:35:00
6:55 AM,73.4,73.4,100,30.28,0.2,Calm,Calm,-,N/A,Fog,Fog,0,2013-07-16 10:55:00
7:15 AM,73.4,73.4,100,30.28,0.2,Calm,Calm,-,N/A,Fog,Fog,0,2013-07-16 11:15:00
7:35 AM,73.4,73.4,100,30.29,0.5,Calm,Calm,-,N/A,Fog,Fog,0,2013-07-16 11:35:00
7:55 AM,75.2,75.2,100,30.29,2.5,Calm,Calm,-,N/A,,Mostly Cloudy,0,2013-07-16 11:55:00
8:15 AM,77.0,77.0,100,30.29,7.0,Calm,Calm,-,N/A,,Scattered Clouds,0,2013-07-16 12:15:00
8:35 AM,77.0,77.0,100,30.30,10.0,WNW,3.5,-,N/A,,Clear,290,2013-07-16 12:35:00
8:55 AM,78.8,78.8,100,30.30,10.0,NW,4.6,-,N/A,,Clear,320,2013-07-16 12:55:00
9:15 AM,78.8,77.0,94,30.29,10.0,WNW,3.5,-,N/A,,Clear,300,2013-07-16 13:15:00
9:35 AM,82.4,73.4,74,30.29,10.0,West,3.5,-,N/A,,Clear,280,2013-07-16 13:35:00
9:55 AM,82.4,71.6,70,30.29,10.0,West,4.6,-,N/A,,Clear,270,2013-07-16 13:55:00
10:15 AM,86.0,71.6,62,30.29,10.0,NW,4.6,-,N/A,,Clear,310,2013-07-16 14:15:00
10:35 AM,86.0,71.6,62,30.29,10.0,Calm,Calm,-,N/A,,Clear,0,2013-07-16 14:35:00
10:55 AM,86.0,71.6,62,30.29,10.0,Calm,Calm,-,N/A,,Scattered Clouds,0,2013-07-16 14:55:00
11:15 AM,87.8,69.8,55,30.29,10.0,NW,4.6,-,N/A,,Mostly Cloudy,310,2013-07-16 15:15:00
11:55 AM,87.8,69.8,55,30.28,10.0,Calm,Calm,-,N/A,,Mostly Cloudy,0,2013-07-16 15:55:00
12:15 PM,87.8,68.0,52,30.27,10.0,Calm,Calm,-,N/A,,Mostly Cloudy,0,2013-07-16 16:15:00
12:35 PM,89.6,68.0,49,30.27,10.0,Calm,Calm,-,N/A,,Scattered Clouds,0,2013-07-16 16:35:00
12:55 PM,89.6,68.0,49,30.27,10.0,West,4.6,-,N/A,,Scattered Clouds,280,2013-07-16 16:55:00
1:15 PM,91.4,64.4,41,30.26,10.0,Calm,Calm,-,N/A,,Scattered Clouds,0,2013-07-16 17:15:00
1:35 PM,91.4,66.2,43,30.25,10.0,Calm,Calm,-,N/A,,Scattered Clouds,0,2013-07-16 17:35:00
1:55 PM,91.4,64.4,41,30.25,10.0,NW,5.8,-,N/A,,Scattered Clouds,310,2013-07-16 17:55:00
2:15 PM,93.2,64.4,38,30.24,10.0,NNW,4.6,-,N/A,,Scattered Clouds,330,2013-07-16 18:15:00
2:35 PM,91.4,64.4,41,30.24,10.0,West,3.5,-,N/A,,Scattered Clouds,270,2013-07-16 18:35:00
2:55 PM,91.4,66.2,43,30.23,10.0,NNW,5.8,-,N/A,,Scattered Clouds,330,2013-07-16 18:55:00
3:15 PM,91.4,62.6,38,30.23,10.0,Calm,Calm,-,N/A,,Scattered Clouds,0,2013-07-16 19:15:00
3:35 PM,93.2,64.4,38,30.22,10.0,SW,3.5,-,N/A,,Scattered Clouds,230,2013-07-16 19:35:00
4:55 PM,93.2,64.4,38,30.21,10.0,SW,3.5,-,N/A,,Scattered Clouds,230,2013-07-16 20:55:00
5:15 PM,93.2,62.6,36,30.20,10.0,WNW,4.6,-,N/A,,Scattered Clouds,290,2013-07-16 21:15:00
5:35 PM,93.2,62.6,36,30.20,10.0,West,5.8,-,N/A,,Clear,270,2013-07-16 21:35:00
5:55 PM,91.4,62.6,38,30.20,10.0,WNW,4.6,-,N/A,,Clear,290,2013-07-16 21:55:00
6:15 PM,91.4,62.6,38,30.19,10.0,West,3.5,-,N/A,,Clear,270,2013-07-16 22:15:00
6:35 PM,91.4,64.4,41,30.19,10.0,WNW,4.6,-,N/A,,Clear,290,2013-07-16 22:35:00
6:55 PM,91.4,66.2,43,30.19,10.0,WNW,3.5,-,N/A,,Scattered Clouds,300,2013-07-16 22:55:00
7:15 PM,89.6,68.0,49,30.19,10.0,Calm,Calm,-,N/A,,Clear,0,2013-07-16 23:15:00
7:35 PM,89.6,69.8,52,30.19,10.0,Calm,Calm,-,N/A,,Clear,0,2013-07-16 23:35:00
7:55 PM,89.6,71.6,55,30.19,10.0,West,3.5,-,N/A,,Clear,280,2013-07-16 23:55:00
8:15 PM,87.8,71.6,58,30.20,10.0,Calm,Calm,-,N/A,,Clear,0,2013-07-17 00:15:00
8:35 PM,87.8,73.4,62,30.20,10.0,Calm,Calm,-,N/A,,Clear,0,2013-07-17 00:35:00
8:55 PM,86.0,75.2,70,30.20,10.0,Calm,Calm,-,N/A,,Clear,0,2013-07-17 00:55:00
9:15 PM,84.2,73.4,70,30.21,10.0,Calm,Calm,-,N/A,,Clear,0,2013-07-17 01:15:00
9:35 PM,82.4,77.0,84,30.21,10.0,Calm,Calm,-,N/A,,Clear,0,2013-07-17 01:35:00
9:55 PM,82.4,77.0,84,30.21,10.0,Calm,Calm,-,N/A,,Clear,0,2013-07-17 01:55:00
10:15 PM,80.6,78.8,94,30.21,10.0,Calm,Calm,-,N/A,,Clear,0,2013-07-17 02:15:00
10:35 PM,80.6,78.8,94,30.21,10.0,SSW,4.6,-,N/A,,Clear,200,2013-07-17 02:35:00
10:55 PM,80.6,78.8,94,30.21,10.0,Calm,Calm,-,N/A,,Clear,0,2013-07-17 02:55:00
11:15 PM,80.6,77.0,89,30.22,10.0,Calm,Calm,-,N/A,,Clear,0,2013-07-17 03:15:00
11:35 PM,78.8,78.8,100,30.22,5.0,Calm,Calm,-,N/A,,Clear,0,2013-07-17 03:35:00
11:55 PM,78.8,78.8,100,30.22,10.0,Calm,Calm,-,N/A,,Scattered Clouds,0,2013-07-17 03:55:00